Grazzanise, Italy

2:37 PM CET on February 21, 2017 (GMT +0100)
Grazzanise Mil

Weather History for LIRM - March, 2013

Change the Weather History Date:

Monday, March 4, 2013

  Actual Average (LIRN) Record (LIRN)
Temperature  
Mean Temperature 46 °F -  
Max Temperature 59 °F 61 °F 71 °F (2002)
Min Temperature 32 °F 42 °F 37 °F (2013)
Degree Days  
Heating Degree Days 20    
Moisture  
Dew Point 41 °F    
Average Humidity 82    
Maximum Humidity 94    
Minimum Humidity 49    
Precipitation  
Precipitation 0.00 in 0.09 in - ()
Sea Level Pressure  
Sea Level Pressure 30.10 in    
Wind  
Wind Speed 4 mph ()    
Max Wind Speed 7 mph    
Max Gust Speed -    
Visibility 4.8 miles    
Events      
Averages and records for this station are not official NWS values.
T = Trace of Precipitation, MM = Missing Value Source: Averaged Metar Reports

Daily Weather History Graph

Daily Weather History Graph

Search for Another Location

Airport or City:

Trip Planner

Search our weather history database for the weather conditions in past years. The results will help you decide how hot, cold, wet, or windy it might be!

Date:

Astronomy

Mar. 04, 2013 Rise Set
Actual Time 6:33 AM CET 5:58 PM CET
Civil Twilight 6:05 AM CET 6:25 PM CET
Nautical Twilight 5:33 AM CET 6:57 PM CET
Astronomical Twilight 5:02 AM CET 7:29 PM CET
Moon 12:25 AM CET (3/4) 10:22 AM CET (3/4)
Length of Visible Light 12h 19m
Length of Day
11h 24m
Waning Gibbous, 55% of the Moon is Illuminated
Mar 4
Waning Gibbous
Mar 4
Last Quarter
Mar 11
New
Mar 19
First Quarter
Mar 27
Full

Hourly Weather History & Observations

Time (CET) Temp. Windchill Dew Point Humidity Pressure Visibility Wind Dir Wind Speed Gust Speed Precip Events Conditions
12:55 AM 37.4 °F 34.9 °F 35.6 °F 93% 30.04 in - NE 3.5 mph - N/A   Clear
1:55 AM 37.4 °F 32.1 °F 35.6 °F 93% 30.04 in 5.0 mi NNE 6.9 mph - N/A   Unknown
2:55 AM 37.4 °F 32.8 °F 35.6 °F 93% 30.04 in 4.3 mi NNE 5.8 mph - N/A   Unknown
3:55 AM 37.4 °F 32.8 °F 35.6 °F 93% 30.04 in 4.3 mi NNE 5.8 mph - N/A   Unknown
4:00 AM 37 °F - 35 °F 89% 30.05 in 4 mi NNE 5.8 mph - -   Mist
4:55 AM 37.4 °F 33.8 °F 35.6 °F 93% 30.04 in 4.3 mi NNE 4.6 mph - N/A   Unknown
5:55 AM 35.6 °F - 32.0 °F 87% 30.06 in 4.3 mi NE 2.3 mph - N/A   Partly Cloudy
6:55 AM 32.0 °F 27.5 °F 28.4 °F 87% 30.06 in 3.1 mi North 4.6 mph - N/A   Partly Cloudy
7:00 AM 33 °F - 28 °F 77% 30.09 in 3 mi North 4.6 mph - -  
7:55 AM 37.4 °F 32.8 °F 33.8 °F 87% 30.09 in 3.7 mi NE 5.8 mph - N/A   Partly Cloudy
8:55 AM 44.6 °F 40.7 °F 39.2 °F 81% 30.09 in 4.3 mi NE 6.9 mph - N/A   Unknown
9:55 AM 48.2 °F - 42.8 °F 82% 30.12 in 5.6 mi NE 4.6 mph - N/A   Unknown
10:55 AM 55.4 °F - 44.6 °F 67% 30.12 in 6.2 mi North 2.3 mph - N/A   Partly Cloudy
11:55 AM 57.2 °F - 46.4 °F 67% 30.15 in 6.2 mi NNW 2.3 mph - N/A   Partly Cloudy
12:55 PM 59.0 °F - 44.6 °F 59% 30.12 in - WSW 4.6 mph - N/A   Clear
1:00 PM 59 °F - 45 °F 49% 30.15 in 6 mi WSW 4.6 mph - -  
1:55 PM 59.0 °F - 44.6 °F 59% 30.12 in - West 5.8 mph - N/A   Clear
2:55 PM 57.2 °F - 46.4 °F 67% 30.12 in - West 6.9 mph - N/A   Clear
3:55 PM 57.2 °F - 48.2 °F 72% 30.09 in - West 6.9 mph - N/A   Clear
4:00 PM 58 °F - 47 °F 59% 30.12 in 6 mi West 6.9 mph - -  
4:55 PM 55.4 °F - 48.2 °F 77% 30.09 in - West 5.8 mph - N/A   Clear
5:55 PM 53.6 °F - 48.2 °F 82% 30.12 in - West 2.3 mph - N/A   Clear
6:55 PM 48.2 °F - 46.4 °F 93% 30.12 in - South 2.3 mph - N/A   Clear
7:00 PM 49 °F - 47 °F 91% 30.13 in 6 mi South 2.3 mph - -  
7:55 PM 46.4 °F - 44.6 °F 93% 30.12 in - ESE 2.3 mph - N/A   Clear
8:55 PM 44.6 °F 43.1 °F 42.8 °F 93% 30.15 in - East 3.5 mph - N/A   Clear
9:55 PM 41.0 °F - 39.2 °F 93% 30.15 in - North 2.3 mph - N/A   Clear
10:00 PM 41 °F - 40 °F 94% 30.17 in 6 mi North 2.3 mph - -  
10:55 PM 41.0 °F 39.0 °F 39.2 °F 93% 30.15 in - NE 3.5 mph - N/A   Clear
11:55 PM 41.0 °F 38.0 °F 39.2 °F 93% 30.18 in 4.3 mi NNE 4.6 mph - N/A   Unknown